EW8926 Weather Reports


Display with metric or nautical units.
time (UTC)temp
F
wind
direction
speed
MPH
gust
MPH
rain 1hr
in
rain 24hr
in
rain mn
in
humidity
%
barometer
mb
20260902115104 87 303 2.0 5.0 0.00 0.00 0.00 50 1019.5
20260902114604 87 4 2.0 5.0 0.00 0.00 0.00 49 1019.5
20260902114105 87 211 2.0 6.0 0.00 0.00 0.00 50 1019.5
20260902113604 87 156 2.0 6.0 0.00 0.00 0.00 51 1019.7
20260902113104 87 131 3.0 5.0 0.00 0.00 0.00 49 1019.7
20260902112104 87 245 2.0 7.0 0.00 0.00 0.00 50 1019.8
20260902111604 86 154 2.0 7.0 0.00 0.00 0.00 51 1019.8
20260902110604 87 320 2.0 5.0 0.00 0.00 0.00 49 1019.9
20260902110106 87 136 2.0 6.0 0.00 0.00 0.00 49 1019.9
20260902105604 87 156 2.0 6.0 0.00 0.00 0.00 49 1019.9
20260902105104 86 135 2.0 5.0 0.00 0.00 0.00 49 1020.0
20260902104604 86 182 2.0 5.0 0.00 0.00 0.00 52 1020.0
20260902102104 85 247 2.0 3.0 0.00 0.00 0.00 51 1020.3
20260902101603 85 142 2.0 3.0 0.00 0.00 0.00 51 1020.3
20260902101104 85 148 2.0 2.0 0.00 0.00 0.00 50 1020.3
20260902100604 85 148 2.0 5.0 0.00 0.00 0.00 52 1020.3
20260902100104 85 294 2.0 5.0 0.00 0.00 0.00 52 1020.3
20260902095604 85 236 2.0 5.0 0.00 0.00 0.00 53 1020.3
20260902095104 85 236 2.0 5.0 0.00 0.00 0.00 54 1020.5
20260902094604 85 139 2.0 6.0 0.00 0.00 0.00 53 1020.5
20260902094104 84 131 2.0 3.0 0.00 0.00 0.00 56 1020.5
20260902093603 84 314 2.0 5.0 0.00 0.00 0.00 55 1020.6
20260902093103 83 176 2.0 3.0 0.00 0.00 0.00 57 1020.6
20260902092603 83 309 2.0 3.0 0.00 0.00 0.00 58 1020.6
20260902092103 83 339 2.0 5.0 0.00 0.00 0.00 59 1020.6
20260902091604 83 293 2.0 6.0 0.00 0.00 0.00 58 1020.6
20260902091104 82 312 2.0 5.0 0.00 0.00 0.00 59 1020.6
20260902090104 81 327 2.0 5.0 0.00 0.00 0.00 59 1020.6
20260902085604 82 124 2.0 3.0 0.00 0.00 0.00 59 1020.6
20260902085104 82 137 2.0 5.0 0.00 0.00 0.00 60 1020.7
20260902084603 81 6 2.0 3.0 0.00 0.00 0.00 63 1020.7
20260902083603 81 118 2.0 5.0 0.00 0.00 0.00 62 1020.6
20260902083104 81 67 2.0 5.0 0.00 0.00 0.00 64 1020.6
20260902082604 80 66 2.0 2.0 0.00 0.00 0.00 65 1020.6
20260902082103 80 131 2.0 3.0 0.00 0.00 0.00 65 1020.5
20260902081604 80 116 2.0 6.0 0.00 0.00 0.00 65 1020.5
20260902081104 80 133 2.0 5.0 0.00 0.00 0.00 65 1020.5
20260902080603 79 23 2.0 2.0 0.00 0.00 0.00 67 1020.5
20260902080104 78 5 2.0 3.0 0.00 0.00 0.00 69 1020.5
20260902075604 78 136 2.0 5.0 0.00 0.00 0.00 70 1020.5
20260902075104 77 140 2.0 5.0 0.00 0.00 0.00 70 1020.4
20260902074604 77 58 2.0 3.0 0.00 0.00 0.00 72 1020.4
20260902074104 76 137 2.0 3.0 0.00 0.00 0.00 73 1020.4
20260902073604 76 137 2.0 6.0 0.00 0.00 0.00 73 1020.4
20260902073104 76 137 2.0 5.0 0.00 0.00 0.00 73 1020.4
20260902072604 76 138 2.0 5.0 0.00 0.00 0.00 75 1020.4
20260902072104 76 138 2.0 5.0 0.00 0.00 0.00 74 1020.3
20260902070604 75 139 2.0 5.0 0.00 0.00 0.00 76 1020.1
20260902070104 75 145 2.0 5.0 0.00 0.00 0.00 75 1020.1
20260902065604 74 148 2.0 2.0 0.00 0.00 0.00 77 1020.1
20260902064604 74 139 1.0 2.0 0.00 0.00 0.00 79 1020.1
20260902063604 72 336 1.0 2.0 0.00 0.00 0.00 83 1020.1
20260902063104 71 313 1.0 2.0 0.00 0.00 0.00 85 1020.1
20260902062604 70 124 1.0 2.0 0.00 0.00 0.00 86 1020.1
20260902062104 70 124 1.0 2.0 0.00 0.00 0.00 86 1020.0
20260902061604 70 160 1.0 3.0 0.00 0.00 0.00 87 1020.0
20260902060604 69 285 0.0 3.0 0.00 0.00 0.00 90 1020.1
20260902060104 69 170 1.0 2.0 0.00 0.00 0.00 92 1020.1
20260902055104 69 170 0.0 2.0 0.00 0.00 0.00 92 1019.8
20260902054604 68 169 0.0 3.0 0.00 0.00 0.00 92 1019.8
20260902054104 68 169 1.0 0.0 0.00 0.00 0.00 92 1019.8
20260902053604 68 169 1.0 0.0 0.00 0.00 0.00 92 1019.6
20260902052604 68 169 0.0 3.0 0.00 0.00 0.00 92 1019.6
20260902052104 68 21 0.0 3.0 0.00 0.00 0.00 92 1019.5
20260902051103 68 347 0.0 0.0 0.00 0.00 0.00 93 1019.5
20260902050604 68 347 0.0 0.0 0.00 0.00 0.00 92 1019.4
20260902050104 68 347 0.0 0.0 0.00 0.00 0.00 92 1019.4
20260902045103 68 347 0.0 2.0 0.00 0.00 0.00 92 1019.3
20260902044604 68 347 0.0 0.0 0.00 0.00 0.00 91 1019.3
20260902044104 68 347 0.0 0.0 0.00 0.00 0.00 91 1019.3
20260902043604 68 347 0.0 2.0 0.00 0.00 0.00 91 1019.2
20260902042604 68 347 1.0 2.0 0.00 0.00 0.00 91 1019.2
20260902042104 68 347 1.0 2.0 0.00 0.00 0.00 91 1019.2
20260902041604 68 347 1.0 3.0 0.00 0.00 0.00 91 1019.2
20260902040604 69 344 0.0 2.0 0.00 0.00 0.00 91 1019.3
20260902040104 69 344 0.0 2.0 0.00 0.00 0.00 91 1019.3
20260902035604 69 344 0.0 2.0 0.00 0.00 0.00 91 1019.3
20260902035104 69 344 1.0 1.0 0.00 0.00 0.00 91 1019.3
20260902034604 69 344 1.0 2.0 0.00 0.00 0.00 90 1019.3
20260902033104 69 344 2.0 2.0 0.00 0.00 0.00 90 1019.3
20260902032604 69 344 2.0 2.0 0.00 0.00 0.00 90 1019.3
20260902032104 69 344 1.0 2.0 0.00 0.00 0.00 89 1019.4
20260902031603 69 344 1.0 3.0 0.00 0.00 0.00 89 1019.4
20260902031104 70 20 1.0 3.0 0.00 0.00 0.00 89 1019.4
20260902030605 70 129 1.0 2.0 0.00 0.00 0.00 89 1019.4
20260902030104 70 129 1.0 2.0 0.00 0.00 0.00 88 1019.4
20260902025103 70 129 1.0 2.0 0.00 0.00 0.00 87 1019.4
20260902024603 70 129 1.0 2.0 0.00 0.00 0.00 87 1019.4
20260902024104 71 129 0.0 2.0 0.00 0.00 0.00 86 1019.4
20260902023104 71 129 0.0 2.0 0.00 0.00 0.00 86 1019.4
20260902022604 71 129 0.0 0.0 0.00 0.00 0.00 85 1019.4
20260902021603 71 129 0.0 0.0 0.00 0.00 0.00 85 1019.4
20260902020104 71 129 0.0 2.0 0.00 0.00 0.00 86 1019.2
20260902015603 71 129 0.0 2.0 0.00 0.00 0.00 87 1019.2
20260902014604 72 129 1.0 2.0 0.00 0.00 0.00 86 1019.1
20260902014104 72 129 0.0 2.0 0.00 0.00 0.00 86 1019.1
20260902013604 72 128 0.0 3.0 0.00 0.00 0.00 86 1019.1
20260902012603 72 64 0.0 0.0 0.00 0.00 0.00 86 1019.1
20260902012104 72 64 0.0 2.0 0.00 0.00 0.00 86 1019.1
20260902011603 72 8 0.0 2.0 0.00 0.00 0.00 86 1019.1
20260902011104 72 8 0.0 2.0 0.00 0.00 0.00 86 1019.1
20260902010105 72 4 0.0 0.0 0.00 0.00 0.00 87 1019.1
20260902005604 72 4 0.0 0.0 0.00 0.00 0.00 86 1019.1
20260902004603 72 4 0.0 1.0 0.00 0.00 0.00 87 1019.1
20260902004104 72 4 0.0 0.0 0.00 0.00 0.00 86 1019.1
20260902003603 72 4 0.0 0.0 0.00 0.00 0.00 86 1019.1
20260902002604 72 4 0.0 0.0 0.00 0.00 0.00 86 1019.1
20260902002103 72 4 0.0 0.0 0.00 0.00 0.00 86 1019.1
20260902001603 72 4 0.0 2.0 0.00 0.00 0.00 85 1019.1
20260902001104 72 4 0.0 0.0 0.00 0.00 0.00 85 1019.1
20260902000604 72 4 0.0 0.0 0.00 0.00 0.00 85 1019.1
20260901235604 72 4 0.0 0.0 0.00 0.00 0.00 83 1019.1
20260901235104 73 4 0.0 0.0 0.00 0.00 0.00 83 1019.1
20260901234604 73 4 0.0 0.0 0.00 0.00 0.00 83 1019.1
20260901234104 73 4 0.0 0.0 0.00 0.00 0.00 83 1019.1
20260901233604 73 4 0.0 1.0 0.00 0.00 0.00 83 1019.2
20260901233104 73 4 0.0 0.0 0.00 0.00 0.00 83 1019.2
20260901232604 73 4 0.0 0.0 0.00 0.00 0.00 82 1019.2
20260901232103 73 4 0.0 0.0 0.00 0.00 0.00 82 1019.2
20260901230604 74 4 0.0 0.0 0.00 0.00 0.00 81 1019.2
20260901230104 74 4 0.0 0.0 0.00 0.00 0.00 80 1019.2
20260901225604 74 4 0.0 1.0 0.00 0.00 0.00 80 1019.2
20260901225104 74 4 0.0 2.0 0.00 0.00 0.00 80 1019.2
20260901224604 74 4 0.0 2.0 0.00 0.00 0.00 80 1019.2
20260901223604 74 4 0.0 0.0 0.00 0.00 0.00 80 1019.1
20260901223104 74 4 0.0 1.0 0.00 0.00 0.00 80 1019.1
20260901222604 74 4 0.0 2.0 0.00 0.00 0.00 80 1019.1
20260901222104 74 4 0.0 2.0 0.00 0.00 0.00 80 1019.1
20260901221604 74 4 0.0 3.0 0.00 0.00 0.00 80 1019.1
20260901221104 74 4 0.0 2.0 0.00 0.00 0.00 80 1019.1
20260901215603 74 4 0.0 0.0 0.00 0.00 0.00 79 1019.1
20260901215104 74 4 0.0 0.0 0.00 0.00 0.00 79 1019.0
20260901214604 74 4 0.0 0.0 0.00 0.00 0.00 79 1019.0
20260901213604 74 4 0.0 2.0 0.00 0.00 0.00 79 1018.9
20260901212604 75 4 0.0 0.0 0.00 0.00 0.00 77 1018.9
20260901212106 75 4 0.0 2.0 0.00 0.00 0.00 77 1018.9
20260901211605 75 4 0.0 2.0 0.00 0.00 0.00 77 1018.9
20260901210605 75 4 1.0 0.0 0.00 0.00 0.00 76 1019.0
20260901210104 76 4 0.0 2.0 0.00 0.00 0.00 76 1019.0
20260901205611 76 4 0.0 2.0 0.00 0.00 0.00 76 1019.0
20260901205104 76 4 2.0 0.0 0.00 0.00 0.00 75 1019.0
20260901204604 76 4 2.0 2.0 0.00 0.00 0.00 75 1019.0
20260901204104 76 4 1.0 2.0 0.00 0.00 0.00 75 1019.0
20260901203105 76 6 0.0 2.0 0.00 0.00 0.00 74 1018.9
20260901202604 76 6 0.0 2.0 0.00 0.00 0.00 74 1018.9
20260901202104 77 6 0.0 2.0 0.00 0.00 0.00 73 1018.9
20260901201604 77 6 0.0 2.0 0.00 0.00 0.00 73 1018.9
20260901201104 77 6 0.0 2.0 0.00 0.00 0.00 73 1018.9
20260901200604 77 6 0.0 2.0 0.00 0.00 0.00 73 1018.9
20260901200104 77 6 0.0 2.0 0.00 0.00 0.00 72 1018.9
20260901195604 78 6 0.0 0.0 0.00 0.00 0.00 71 1018.9
20260901195103 78 6 0.0 0.0 0.00 0.00 0.00 71 1018.8
20260901194604 78 6 0.0 2.0 0.00 0.00 0.00 71 1018.8
20260901194104 78 6 0.0 2.0 0.00 0.00 0.00 70 1018.8
20260901193104 78 6 0.0 1.0 0.00 0.00 0.00 70 1018.7
20260901192604 78 6 0.0 2.0 0.00 0.00 0.00 70 1018.7
20260901192104 78 6 1.0 2.0 0.00 0.00 0.00 69 1018.4
20260901191604 79 6 1.0 1.0 0.00 0.00 0.00 69 1018.4
20260901191104 79 6 0.0 5.0 0.00 0.00 0.00 69 1018.4
20260901190604 79 357 0.0 2.0 0.00 0.00 0.00 68 1018.2
20260901190104 79 357 2.0 2.0 0.00 0.00 0.00 68 1018.2
20260901185104 79 341 1.0 3.0 0.00 0.00 0.00 67 1018.0
20260901183604 80 296 2.0 2.0 0.00 0.00 0.00 65 1017.8
20260901182604 81 296 2.0 3.0 0.00 0.00 0.00 64 1017.8
20260901182104 81 310 2.0 3.0 0.00 0.00 0.00 63 1017.7
20260901181104 82 305 2.0 5.0 0.00 0.00 0.00 62 1017.7
20260901180604 82 301 2.0 5.0 0.00 0.00 0.00 61 1017.5
20260901180103 82 312 2.0 2.0 0.00 0.00 0.00 61 1017.5
20260901175604 83 313 2.0 3.0 0.00 0.00 0.00 61 1017.5
20260901174604 83 327 2.0 3.0 0.00 0.00 0.00 60 1017.4
20260901174103 83 327 2.0 5.0 0.00 0.00 0.00 60 1017.4
20260901173604 83 320 2.0 6.0 0.00 0.00 0.00 60 1017.3
20260901173104 83 316 2.0 6.0 0.00 0.00 0.00 59 1017.3
20260901172604 84 315 2.0 5.0 0.00 0.00 0.00 59 1017.3
20260901172104 84 307 2.0 6.0 0.00 0.00 0.00 59 1017.2
20260901171604 84 310 2.0 6.0 0.00 0.00 0.00 58 1017.2
20260901171104 84 305 2.0 3.0 0.00 0.00 0.00 58 1017.2
20260901170604 84 297 2.0 5.0 0.00 0.00 0.00 58 1017.3
20260901170104 85 312 2.0 5.0 0.00 0.00 0.00 57 1017.3
20260901165604 85 315 2.0 5.0 0.00 0.00 0.00 57 1017.3
20260901165104 85 310 4.0 6.0 0.00 0.00 0.00 57 1017.2
20260901164603 85 3 5.0 6.0 0.00 0.00 0.00 57 1017.2
20260901164104 86 327 3.0 7.0 0.00 0.00 0.00 56 1017.2
20260901163104 86 313 4.0 7.0 0.00 0.00 0.00 55 1017.2
20260901162604 87 308 5.0 8.0 0.00 0.00 0.00 54 1017.2
20260901162104 87 310 5.0 8.0 0.00 0.00 0.00 54 1017.1
20260901161604 88 323 5.0 8.0 0.00 0.00 0.00 53 1017.1
20260901161104 89 327 3.0 8.0 0.00 0.00 0.00 52 1017.1
20260901160104 90 284 2.0 6.0 0.00 0.00 0.00 45 1017.1
20260901154603 90 242 2.0 6.0 0.00 0.00 0.00 45 1017.2
20260901154104 90 311 2.0 5.0 0.00 0.00 0.00 44 1017.2
20260901153604 90 316 2.0 7.0 0.00 0.00 0.00 44 1017.2
20260901153104 90 304 2.0 7.0 0.00 0.00 0.00 43 1017.2
20260901152604 91 315 2.0 6.0 0.00 0.00 0.00 43 1017.2
20260901152105 90 267 2.0 6.0 0.00 0.00 0.00 42 1017.3
20260901151604 90 280 2.0 5.0 0.00 0.00 0.00 44 1017.3
20260901151104 90 237 2.0 5.0 0.00 0.00 0.00 44 1017.3
20260901150604 91 118 2.0 5.0 0.00 0.00 0.00 43 1017.3
20260901150105 91 137 2.0 5.0 0.00 0.00 0.00 44 1017.3
20260901145604 91 222 2.0 7.0 0.00 0.00 0.00 44 1017.3
20260901145104 91 258 2.0 6.0 0.00 0.00 0.00 45 1017.4
20260901144604 91 258 2.0 6.0 0.00 0.00 0.00 44 1017.4
20260901144104 91 51 2.0 6.0 0.00 0.00 0.00 45 1017.4
20260901143104 90 283 2.0 5.0 0.00 0.00 0.00 46 1017.6
20260901142605 90 165 2.0 5.0 0.00 0.00 0.00 46 1017.6
20260901142104 90 129 2.0 6.0 0.00 0.00 0.00 44 1017.6
20260901141604 90 128 2.0 5.0 0.00 0.00 0.00 45 1017.6
20260901141104 90 317 2.0 5.0 0.00 0.00 0.00 44 1017.6
20260901140604 90 235 2.0 5.0 0.00 0.00 0.00 45 1017.7
20260901140104 90 169 2.0 7.0 0.00 0.00 0.00 45 1017.7
20260901135604 90 109 2.0 3.0 0.00 0.00 0.00 45 1017.7
20260901135104 90 235 2.0 5.0 0.00 0.00 0.00 45 1017.8
20260901134104 90 217 2.0 5.0 0.00 0.00 0.00 46 1017.8
20260901133604 90 260 2.0 5.0 0.00 0.00 0.00 46 1017.9
20260901133104 89 282 2.0 5.0 0.00 0.00 0.00 46 1017.9
20260901132604 89 290 2.0 3.0 0.00 0.00 0.00 47 1017.9
20260901132104 89 189 2.0 5.0 0.00 0.00 0.00 47 1018.0
20260901131604 89 307 2.0 5.0 0.00 0.00 0.00 47 1018.0
20260901131104 89 313 2.0 7.0 0.00 0.00 0.00 48 1018.0
20260901130604 89 134 2.0 6.0 0.00 0.00 0.00 48 1018.2
20260901130103 89 273 2.0 5.0 0.00 0.00 0.00 48 1018.2
20260901125604 89 136 2.0 5.0 0.00 0.00 0.00 48 1018.2
20260901125104 89 153 3.0 5.0 0.00 0.00 0.00 49 1018.2
20260901124604 89 169 3.0 6.0 0.00 0.00 0.00 50 1018.2
20260901123603 88 271 3.0 7.0 0.00 0.00 0.00 50 1018.3
20260901122104 88 96 2.0 6.0 0.00 0.00 0.00 50 1018.3
20260901121104 88 257 2.0 7.0 0.00 0.00 0.00 51 1018.3
20260901120604 88 322 2.0 5.0 0.00 0.00 0.00 51 1018.5
20260901120104 87 319 3.0 5.0 0.00 0.00 0.00 51 1018.5
20260901115604 87 324 3.0 5.0 0.00 0.00 0.00 51 1018.5